Theta_e
321 322 322 322 323 324 325 325 325 326 327 326 325 325 325 323 324 323 324 324 323 322 322 323 322 325 329 328 329 330 332 334 335 337 337 339 339 340 340 340 341 340 339 339 338 336 337 339 340 341 341 343 339 339 342 342 341 342 339 339 336 335 335 338 337 337 334 333 337 338 339 341 340 339 337 334 331 330 330 330 330 331 332 338 341
320 319 321 321 321 323 323 323 324 323 324 324 323 322 322 322 322 321 322 323 322 322 322 321 321 321 324 322 326 329 331 332 333 335 336 336 337 338 339 339 340 341 341 341 338 338 337 338 339 342 346 342 339 338 339 340 341 338 340 338 339 336 335 335 336 335 331 329 329 330 334 337 339 340 337 335 333 331 331 332 334 332 330 333 341
317 318 319 319 320 320 321 322 321 320 320 321 321 321 320 319 319 320 321 320 321 322 321 320 321 322 323 322 323 325 331 325 328 331 330 329 330 332 334 337 338 339 340 340 340 338 339 340 339 339 342 340 336 335 337 339 341 341 342 338 336 337 336 337 338 338 330 332 331 329 326 327 333 336 339 338 336 335 332 331 331 332 331 331 336
316 317 317 317 318 318 318 317 318 318 317 319 319 320 319 319 319 319 319 320 319 321 322 323 322 323 324 325 325 323 322 324 327 328 326 326 326 328 329 330 330 333 337 339 340 340 340 340 340 339 338 339 337 335 336 338 339 342 342 341 340 336 335 335 338 339 335 331 325 327 327 327 322 327 333 337 338 336 333 331 332 332 332 332 332
316 316 316 316 316 316 316 316 318 317 316 317 319 318 318 319 319 319 318 319 320 321 321 322 322 321 323 325 326 326 326 324 323 321 322 323 323 324 326 326 327 328 331 335 338 339 341 340 338 340 337 337 336 334 336 336 335 340 342 340 338 338 337 337 338 338 338 338 331 328 326 325 324 327 332 334 339 335 334 332 332 332 331 332 331
317 316 316 317 317 316 316 318 318 317 316 317 318 318 319 319 320 319 318 318 318 320 320 320 319 317 317 315 314 315 314 318 316 316 317 318 318 322 324 324 324 326 328 330 332 337 341 341 340 340 339 335 337 337 337 337 336 336 339 339 338 343 339 336 335 338 339 339 338 336 334 328 329 331 329 325 338 338 335 334 333 333 333 332 331
317 317 316 316 316 315 316 318 317 316 317 318 319 319 319 319 320 319 318 319 319 319 320 319 317 317 317 316 316 315 313 316 318 320 319 319 320 321 321 324 324 324 327 329 331 332 335 339 341 341 340 339 337 338 337 335 335 336 341 337 338 338 340 334 334 338 339 340 339 339 339 338 337 333 329 330 327 333 335 334 333 334 335 334 333
315 316 316 316 315 316 316 317 316 316 318 318 319 319 319 319 319 319 319 319 319 319 318 319 316 317 316 316 316 315 314 316 317 318 320 321 320 321 322 322 323 323 323 325 329 330 331 333 337 339 339 340 340 339 338 337 337 339 340 338 339 337 334 333 338 342 336 335 339 337 338 338 336 337 335 333 330 328 330 334 336 337 337 337 336
316 315 315 315 315 316 317 316 317 318 317 318 318 319 319 319 319 319 319 319 319 319 318 318 317 317 317 316 315 316 316 316 316 318 318 320 320 322 323 323 324 326 325 326 327 329 330 330 332 333 337 340 341 338 338 336 335 334 336 335 334 336 338 338 340 338 337 335 338 339 337 335 335 336 336 336 330 329 328 329 332 337 338 337 339
315 315 316 316 317 317 318 317 317 318 319 319 319 319 318 318 318 318 318 317 319 319 319 318 318 318 316 316 315 315 315 316 317 316 318 319 319 320 321 322 322 322 324 325 326 325 325 327 328 330 334 336 339 341 339 338 338 335 335 337 336 336 342 338 337 339 340 338 338 339 338 337 334 334 334 333 333 332 328 328 332 332 331 335 340
315 315 315 316 317 318 317 317 317 318 319 318 318 318 319 318 318 317 317 317 318 318 318 317 317 316 316 315 316 315 315 316 315 315 316 317 317 319 319 320 321 322 323 324 324 324 325 325 326 330 332 335 335 338 340 340 339 338 339 339 340 339 339 338 337 342 342 340 336 335 335 338 336 333 332 333 333 332 330 329 331 331 331 332 338
314 314 314 316 316 316 316 316 316 317 318 318 318 317 317 317 318 316 317 317 317 317 317 316 316 316 316 316 315 316 316 315 314 314 315 315 317 317 318 318 320 320 322 321 323 323 323 323 325 328 331 332 333 336 337 336 339 340 339 338 338 337 338 340 337 337 336 341 340 338 335 336 340 338 337 337 335 334 333 330 330 332 332 331 334
313 313 314 314 314 315 316 316 316 316 316 317 316 317 317 316 317 316 315 316 316 317 316 316 316 315 315 315 315 316 315 316 316 315 316 315 316 316 317 316 317 318 319 320 321 322 322 322 324 325 327 330 331 331 333 334 338 337 339 339 338 336 336 338 334 334 339 337 337 338 339 337 336 340 340 338 338 339 335 330 332 334 331 332 334
313 313 313 314 314 315 316 315 315 316 317 317 316 316 316 316 316 316 315 316 316 316 315 315 315 316 316 315 315 314 314 316 315 315 316 316 316 316 316 316 317 318 318 319 320 320 320 320 320 320 321 321 322 324 329 332 334 335 337 338 336 336 336 337 339 340 340 339 339 338 339 337 336 338 340 340 338 337 335 333 332 334 334 332 334
313 313 313 314 316 316 315 315 315 315 316 316 315 315 315 315 315 315 315 316 316 316 316 315 314 315 315 314 314 315 314 314 314 315 316 316 316 316 317 317 317 318 318 320 320 320 320 320 320 320 320 321 322 323 325 332 335 335 335 335 337 338 338 340 338 336 339 337 336 338 337 336 335 334 339 341 339 338 338 338 334 329 331 333 332
313 313 314 315 317 317 316 316 315 314 314 314 314 315 315 315 315 316 315 316 316 315 315 315 315 315 315 315 315 315 315 315 315 315 316 316 317 316 317 318 318 318 319 319 319 319 318 318 318 318 319 320 321 322 323 327 330 332 334 336 336 337 337 338 338 337 340 339 338 338 336 335 337 338 341 339 339 340 340 340 338 335 331 328 331
314 314 314 315 316 317 316 316 315 314 313 313 314 315 315 315 315 316 316 316 316 315 315 315 315 314 314 314 314 314 314 314 313 314 315 317 317 316 316 316 318 318 318 319 317 318 318 318 317 318 318 319 320 321 321 323 324 327 330 332 334 336 337 338 340 339 340 340 339 337 336 338 339 338 338 337 340 342 341 340 339 336 336 330 326
314 315 315 316 316 315 315 315 314 314 313 314 315 316 316 316 315 314 314 314 314 314 314 314 314 314 314 314 314 314 314 313 314 314 315 315 315 315 316 315 316 316 316 317 317 317 317 317 317 317 318 318 320 321 322 322 325 326 328 331 332 335 335 337 336 337 339 340 339 339 338 334 336 336 340 337 338 339 340 340 339 339 338 333 332
314 314 314 315 315 315 315 314 313 315 315 314 315 315 315 316 314 314 314 314 314 314 314 315 315 314 313 313 314 314 313 313 313 314 315 314 313 314 314 314 315 316 316 316 316 316 316 316 317 316 317 317 318 318 320 321 323 324 327 329 331 332 333 335 336 336 338 340 339 336 337 338 336 335 339 335 340 335 339 340 340 340 338 337 335
313 314 314 314 315 315 314 315 313 314 313 314 315 315 314 315 314 314 315 315 315 314 315 314 314 313 313 313 314 313 312 312 313 313 312 312 312 313 313 313 314 315 315 316 315 315 315 315 315 315 315 316 317 317 318 319 321 322 324 326 329 330 330 331 334 336 335 336 337 335 336 337 336 335 335 337 335 336 338 338 340 340 339 338 337
314 314 314 314 315 315 315 316 314 314 314 314 314 315 314 314 314 314 314 315 314 315 314 314 314 313 313 313 313 313 313 313 313 313 312 312 312 313 312 313 313 313 314 314 314 314 314 315 315 315 315 315 316 316 317 319 320 320 321 324 327 329 328 329 333 334 335 335 335 334 334 335 337 337 335 336 333 337 340 337 337 339 339 338 335
315 315 315 315 315 315 314 315 316 314 314 313 313 314 313 313 313 314 315 314 314 313 313 313 313 313 313 313 313 313 312 312 312 312 312 312 312 313 314 313 313 313 313 313 313 313 314 314 314 315 315 315 315 315 317 318 318 319 320 322 325 327 327 327 330 331 333 334 336 334 334 336 339 335 334 334 335 340 339 338 334 337 338 336 336
315 316 315 315 315 315 314 315 314 314 314 314 314 313 313 313 313 314 313 314 314 313 313 313 312 313 313 313 312 312 312 312 312 312 312 313 313 314 314 313 312 312 313 312 312 312 312 313 313 314 314 314 315 316 317 317 318 319 319 321 323 325 327 327 326 328 329 330 332 333 333 334 336 335 336 335 337 337 336 333 335 339 337 335 335
315 316 316 316 316 317 315 313 313 312 314 313 314 313 313 313 313 314 313 313 313 313 312 312 312 312 312 311 311 311 312 312 312 312 313 313 313 313 313 312 312 312 311 312 311 311 311 311 312 313 314 313 314 314 315 315 315 318 319 319 321 323 325 326 326 327 328 328 330 331 332 334 336 334 334 335 336 336 335 334 334 334 334 335 338
314 314 315 316 315 314 313 312 312 312 312 313 313 313 313 313 313 313 313 313 313 313 311 311 311 311 311 310 311 312 312 313 313 313 313 313 313 313 313 312 311 311 311 311 310 310 310 310 310 310 312 313 312 313 313 314 314 315 318 320 321 321 324 326 326 327 329 329 330 332 331 331 333 333 336 337 336 337 337 333 332 335 334 336 337
313 314 314 314 314 313 313 313 312 312 311 312 313 312 312 312 313 314 313 313 312 312 311 311 310 310 309 310 311 312 312 312 312 313 313 313 313 312 312 311 311 310 311 310 309 309 309 308 308 309 310 311 312 312 313 314 315 315 316 318 321 323 324 325 325 326 328 330 330 330 331 332 332 332 332 336 335 336 335 333 334 334 335 339 335
313 314 314 314 314 314 313 314 313 313 312 313 313 312 311 312 313 313 313 312 312 312 311 310 310 309 308 310 311 311 311 312 312 312 312 312 311 312 311 310 310 310 309 309 309 308 309 308 308 309 308 309 310 312 313 313 314 315 315 315 319 321 323 325 326 327 327 328 329 330 332 332 332 332 332 333 335 338 337 335 335 334 336 337 337
313 313 313 313 314 315 315 315 315 313 313 312 312 312 311 312 311 312 312 311 311 311 310 309 308 308 308 310 311 311 311 311 312 312 311 311 311 311 311 310 310 309 308 308 308 307 308 307 308 308 309 309 309 310 311 313 314 315 315 315 316 316 315 319 323 326 327 327 328 330 331 332 332 332 333 334 335 334 334 334 336 332 332 334 336
312 313 313 313 313 315 316 315 314 313 314 312 311 311 312 312 311 311 311 310 311 310 309 308 307 307 309 310 310 310 311 311 311 310 311 311 310 310 309 309 308 308 308 308 308 307 306 306 307 308 307 308 308 309 311 312 313 313 313 310 310 310 312 315 320 323 325 327 329 331 330 330 332 330 323 323 326 328 337 336 336 336 337 333 331
310 312 313 314 313 315 316 315 314 313 313 310 310 310 310 311 311 310 310 310 310 309 308 307 306 307 309 309 309 310 310 310 310 310 309 309 309 308 307 307 307 307 307 307 306 306 306 305 305 305 306 306 307 309 309 306 304 308 308 306 307 308 308 310 314 319 323 325 325 328 332 329 325 323 319 313 310 311 316 330 338 337 336 335 331
309 311 312 313 314 315 315 314 314 312 312 310 311 311 311 310 310 309 309 309 309 308 307 307 306 308 309 309 309 309 309 309 309 309 309 308 307 307 307 306 305 305 304 305 305 304 304 304 304 304 304 305 306 308 303 298 297 298 304 305 305 305 306 307 310 315 319 322 324 327 331 331 330 325 328 313 309 308 308 308 310 315 322 334 333
309 310 312 313 313 313 313 313 312 312 311 310 311 311 310 309 309 308 309 309 308 307 306 307 308 309 308 308 308 309 308 308 308 307 307 306 306 305 304 304 303 303 303 303 303 302 303 303 303 304 304 305 306 304 298 297 296 296 298 304 304 304 305 307 309 312 317 320 322 325 329 329 332 333 333 334 323 312 308 307 307 307 307 308 312
309 309 310 312 312 313 314 313 312 310 310 311 311 310 309 309 308 309 308 308 307 306 306 307 308 308 308 308 308 308 308 308 307 306 306 305 304 302 301 301 300 301 301 301 302 302 301 302 302 302 303 304 304 301 297 296 295 295 295 299 304 304 304 305 307 309 312 315 319 323 326 328 327 328 329 330 331 332 313 307 309 308 307 306 303
311 311 310 311 312 313 313 312 312 312 312 312 312 310 310 310 309 308 308 307 306 306 307 307 307 307 307 308 308 307 307 307 306 306 304 304 302 301 300 300 300 300 300 300 301 300 300 301 301 301 302 303 303 301 295 295 294 293 293 295 302 303 304 305 306 307 310 314 318 320 321 324 327 329 330 330 331 332 333 332 328 327 329 324 310
311 311 311 312 312 312 312 312 312 312 313 312 310 310 310 308 308 307 307 306 306 306 307 306 306 307 308 308 307 307 306 306 306 305 304 303 301 301 300 300 299 299 299 298 299 299 299 300 300 300 301 301 302 297 294 293 293 293 293 294 300 302 304 307 309 310 312 314 317 320 322 322 323 323 326 326 327 329 332 332 331 332 333 334 335
311 312 312 312 311 312 312 312 313 312 311 310 310 310 308 308 308 306 306 306 306 306 305 306 306 307 307 307 306 306 306 305 305 304 303 302 301 300 299 299 299 299 299 299 299 298 298 298 299 300 299 299 301 295 293 293 293 293 293 298 299 300 301 304 307 311 312 315 317 319 320 321 323 323 317 308 313 327 327 327 328 330 331 333 334
312 312 312 313 313 313 313 314 312 311 310 310 310 309 307 307 306 306 306 305 306 305 304 305 306 306 306 306 306 305 305 304 304 303 302 302 300 299 299 299 298 298 296 296 296 297 297 297 297 298 298 298 299 297 293 293 292 292 294 298 298 299 301 303 306 310 312 314 316 318 320 320 322 322 314 305 303 308 326 325 325 327 328 330 331
311 312 313 314 314 314 314 312 312 312 311 311 310 308 307 306 306 305 305 305 305 304 304 305 306 306 306 306 306 305 304 304 304 303 302 301 301 300 299 299 297 296 295 296 296 296 296 296 296 295 296 296 296 296 294 293 292 292 294 296 297 298 300 302 304 307 310 313 316 316 318 319 321 321 309 303 301 311 325 324 325 325 325 325 327
311 311 312 312 313 312 312 312 312 311 310 310 309 308 306 305 305 305 305 304 304 304 305 305 306 306 306 306 306 305 304 303 303 303 302 301 300 299 299 298 297 296 296 296 296 295 295 295 295 295 296 295 296 296 294 293 292 292 294 296 295 295 296 298 302 306 310 313 314 315 314 314 316 315 304 302 300 310 324 324 325 325 324 323 326
310 310 312 312 312 311 310 310 310 310 311 309 308 307 306 305 304 305 304 304 304 305 305 306 306 306 306 306 305 305 304 303 302 302 302 300 300 300 299 298 297 296 295 295 295 294 294 294 295 295 295 295 294 295 295 292 292 292 292 294 294 293 294 296 299 302 305 310 313 316 314 303 300 301 302 301 301 299 318 323 324 324 325 323 326
310 310 308 311 311 310 309 310 310 310 309 308 307 306 305 305 305 304 304 305 305 306 306 306 306 305 305 305 305 304 303 303 303 301 301 301 300 299 298 297 296 296 295 294 294 294 294 293 293 293 293 293 294 294 295 292 291 291 291 291 292 292 293 295 297 299 301 304 309 314 317 310 298 296 295 295 295 296 298 313 320 320 322 324 316
310 309 309 310 309 310 310 310 310 310 308 307 306 306 305 305 304 304 305 306 306 306 306 306 305 305 305 305 304 304 303 303 303 302 301 300 300 300 298 297 296 295 294 293 293 293 292 292 292 292 292 292 294 294 293 292 291 290 290 290 290 292 293 293 294 297 300 303 305 309 313 306 293 294 293 294 294 294 294 305 312 304 302 300 318
310 309 308 307 308 308 309 310 310 309 307 307 307 305 305 305 304 305 306 306 306 306 305 305 305 304 304 304 305 304 304 304 303 302 300 299 299 299 298 298 296 294 293 293 293 292 292 291 290 290 290 291 292 292 292 291 290 289 289 289 289 290 290 292 293 295 298 302 305 307 309 299 292 293 294 294 295 294 298 305 299 298 298 297 302
312 312 311 307 307 308 309 310 309 308 307 307 307 305 305 304 304 307 307 306 306 306 305 305 304 304 304 304 304 305 305 305 303 302 300 300 299 299 298 297 296 294 293 292 291 291 290 289 288 288 289 290 290 290 290 290 290 289 289 289 289 289 290 293 295 296 299 301 304 303 298 291 292 291 292 293 294 295 299 293 292 294 294 296 307
312 311 311 308 306 306 308 309 308 308 307 307 306 305 305 304 305 307 305 306 306 305 304 304 304 304 304 304 304 304 304 304 303 302 301 299 298 298 296 296 296 294 292 290 290 289 287 287 286 287 287 288 289 289 289 290 289 289 289 289 290 290 291 292 294 296 298 299 293 291 291 292 291 292 292 294 296 296 292 292 292 292 298 307 310
312 311 310 308 307 307 308 309 308 308 307 306 306 306 305 305 307 306 306 305 305 305 303 304 304 304 304 303 303 304 303 304 304 302 302 301 299 297 296 295 294 292 291 290 289 287 286 286 286 287 287 287 288 288 288 288 289 289 289 290 291 292 293 293 296 297 293 291 291 291 291 292 293 294 299 299 299 297 292 293 294 298 309 311 312
309 309 308 308 307 307 307 307 306 307 307 306 307 306 306 306 306 306 306 305 305 304 303 303 303 303 304 303 303 302 301 303 303 302 302 302 300 298 297 294 292 290 290 290 288 287 286 286 285 286 286 286 286 287 287 287 287 287 289 291 292 294 293 294 298 298 296 296 294 293 292 291 292 291 292 293 293 294 296 296 298 300 301 302 302
310 309 308 308 307 307 307 307 306 307 307 306 306 306 306 306 306 306 306 305 304 304 303 303 303 303 302 302 302 296 298 301 301 301 300 300 299 299 296 294 290 288 288 287 287 286 286 285 285 285 285 284 284 286 286 286 286 286 287 290 292 293 293 292 293 295 297 298 298 294 294 296 295 294 294 294 293 294 293 293 293 294 296 297 298
308 308 306 306 307 306 306 306 306 307 307 306 306 306 306 306 306 306 306 304 304 302 302 303 303 302 302 301 302 302 301 300 300 300 300 300 297 297 296 296 293 289 287 286 286 285 285 285 286 286 284 283 283 284 285 286 287 286 286 288 290 291 293 293 290 290 297 296 295 293 292 292 291 290 289 289 289 289 290 291 291 291 292 294 295
309 307 306 306 307 306 306 306 307 307 307 306 306 306 306 306 306 306 305 304 304 303 303 302 301 301 301 301 301 301 301 299 299 298 298 298 288 289 292 294 292 286 285 285 284 285 284 285 285 286 285 283 283 284 285 285 286 286 286 286 286 287 287 289 288 288 291 292 290 289 288 287 287 287 286 286 286 287 287 288 289 289 290 290 291
308 306 305 305 306 306 306 307 307 307 306 305 306 306 306 306 306 306 305 304 304 302 302 302 301 300 298 298 300 300 300 299 299 298 298 296 296 290 286 287 285 287 286 284 285 284 284 283 284 283 285 284 284 284 284 285 285 286 286 285 285 286 286 286 287 291 290 289 288 287 286 285 284 285 284 284 285 285 285 285 286 287 288 289 289
Wind_Speed
9 8 8 9 8 8 8 9 10 10 10 10 10 10 10 9 10 10 8 7 6 6 6 5 4 3 3 3 3 2 3 3 3 3 3 3 5 6 6 5 5 6 5 7 8 8 8 8 8 10 9 8 9 10 11 12 13 12 12 11 12 12 12 11 10 9 9 9 8 10 9 10 11 10 11 11 12 11 10 10 10 10 10 10 10
10 9 9 8 8 9 8 8 8 10 9 10 10 10 10 10 10 8 7 7 7 6 4 4 4 3 2 2 1 1 1 2 3 3 3 3 5 6 6 7 7 6 6 6 7 9 8 8 9 10 7 8 10 12 12 12 13 14 12 11 12 13 12 13 11 9 10 10 9 9 9 10 12 12 13 13 13 12 11 11 11 12 12 11 10
11 10 9 9 9 9 8 8 8 9 9 9 9 9 9 9 8 7 7 6 5 4 3 3 2 2 2 1 0 0 1 1 2 2 2 3 3 3 4 5 6 8 7 7 6 7 9 8 7 9 9 8 9 10 12 16 15 15 13 11 11 12 12 11 12 12 10 10 9 8 9 9 9 11 11 13 13 13 12 13 13 13 15 13 11
12 11 10 9 9 8 8 8 8 8 8 8 8 8 7 8 8 8 7 7 6 5 4 3 2 2 3 2 1 2 1 1 2 2 2 3 4 4 4 4 6 7 7 7 6 6 6 7 6 8 9 7 8 10 12 11 13 13 12 12 11 10 11 12 13 13 11 9 10 11 9 8 9 10 10 10 13 14 14 13 13 13 14 14 12
12 11 10 9 9 8 8 8 7 7 7 7 7 7 7 8 8 8 7 7 6 6 5 4 4 3 3 2 2 1 1 1 2 2 3 3 4 4 4 6 6 6 7 8 7 8 8 7 8 7 7 8 9 10 11 9 12 12 11 9 13 12 11 9 11 13 14 11 9 9 9 9 10 7 7 7 9 10 14 14 12 13 13 12 12
11 11 11 10 9 9 9 8 8 8 8 7 8 8 8 8 8 7 7 7 7 7 6 5 6 6 6 6 6 6 5 5 5 6 6 5 5 5 6 7 7 7 7 8 9 8 8 8 8 7 7 9 8 8 10 9 11 12 15 10 15 12 10 10 12 11 13 14 13 11 8 6 6 8 8 7 8 8 9 12 12 13 12 11 11
11 10 10 10 10 9 9 8 9 9 8 8 8 8 8 8 7 7 7 6 6 6 6 4 5 5 5 4 4 5 6 5 5 5 5 6 5 6 7 7 7 8 8 8 8 9 9 8 8 8 7 6 8 10 10 12 10 12 9 10 11 11 10 10 14 11 11 12 13 14 14 11 9 6 7 5 7 8 8 8 10 12 12 12 12
11 11 11 10 10 9 9 10 9 9 9 9 8 7 8 7 7 7 6 6 5 5 6 5 4 4 4 4 3 3 5 6 7 6 6 6 7 7 6 6 7 7 8 9 9 9 9 9 9 8 7 7 6 7 10 11 11 11 8 10 11 8 12 13 13 8 6 10 11 13 13 14 15 14 13 9 7 6 8 8 9 10 10 10 11
12 11 12 11 10 9 10 10 11 11 9 8 7 7 6 6 6 6 6 6 5 5 5 5 4 3 3 4 3 3 3 4 6 6 7 7 8 7 6 7 7 7 7 8 9 9 9 9 9 9 8 8 8 8 9 11 11 12 10 9 11 13 12 13 10 10 9 9 10 12 12 12 12 14 14 13 12 10 10 9 9 10 10 10 10
12 12 12 11 10 10 10 11 11 9 7 7 7 6 6 5 5 5 5 4 4 4 4 4 4 3 3 3 4 4 4 4 4 5 6 6 8 8 7 6 6 6 6 7 8 9 10 10 10 10 10 9 8 9 10 9 9 9 11 10 12 16 9 9 11 10 7 10 11 9 9 10 12 12 13 13 14 14 11 10 10 11 11 10 10
12 13 12 11 10 10 11 10 10 9 6 6 6 6 5 5 4 5 4 4 3 4 4 4 3 4 3 4 4 4 5 5 5 5 5 6 7 8 8 7 7 7 6 7 8 9 9 10 9 10 10 9 9 10 10 9 9 10 11 14 13 11 10 12 12 13 11 11 10 10 12 10 10 11 12 12 12 11 12 13 12 11 12 11 11
13 13 13 13 11 11 10 10 9 8 7 6 6 6 5 4 4 5 4 3 3 2 3 4 3 3 4 4 4 5 5 4 6 6 6 6 6 7 7 7 8 7 7 7 7 8 9 9 10 10 10 10 10 9 10 11 10 10 9 8 9 12 13 11 15 12 16 11 11 9 10 13 11 11 11 10 11 12 12 11 11 11 12 12 9
14 13 13 12 12 11 10 10 9 8 7 7 7 6 5 4 4 4 4 3 2 2 2 3 3 4 4 4 5 5 5 6 6 6 6 6 6 6 7 7 7 7 8 8 8 9 8 9 9 9 9 9 10 10 10 11 11 9 9 11 10 12 12 13 14 16 15 13 10 11 9 10 14 13 11 11 11 10 11 11 11 11 10 9 9
14 13 13 13 12 10 10 10 9 8 8 7 7 6 5 4 4 3 4 3 2 1 1 2 2 3 4 4 5 5 6 6 6 6 6 6 6 7 7 7 7 8 8 9 8 9 8 9 10 11 11 12 12 13 13 12 11 11 11 11 12 11 11 17 16 16 13 14 11 9 9 8 11 15 12 12 12 11 11 12 10 9 9 10 9
14 14 13 13 11 11 10 9 8 8 8 7 6 6 5 5 4 4 3 3 2 1 1 2 3 3 4 5 5 5 6 6 6 6 6 7 7 8 8 7 8 8 8 8 9 10 10 10 11 11 11 12 12 12 12 12 12 12 11 12 10 10 13 11 10 14 13 13 14 11 10 12 13 14 15 13 13 12 11 11 11 12 10 10 10
14 14 13 13 11 10 9 9 8 8 8 7 7 6 5 4 4 3 2 2 1 1 1 1 2 3 4 6 6 6 6 7 7 6 7 7 9 8 9 9 8 8 9 9 10 11 12 13 12 12 11 12 12 12 13 12 12 12 12 11 13 10 13 16 13 16 17 18 15 11 10 13 13 14 9 12 15 12 11 11 10 10 10 11 10
13 13 13 13 12 11 10 10 9 9 9 9 8 7 6 5 4 4 3 2 1 1 2 2 3 4 4 5 6 7 8 8 8 9 9 8 9 9 9 10 10 10 9 9 11 11 12 12 13 13 12 13 13 13 13 14 14 13 13 13 13 13 13 15 13 13 14 15 12 14 12 11 12 13 9 12 14 12 12 11 11 11 10 11 10
15 14 13 13 13 13 11 10 11 10 10 10 10 8 6 5 4 3 2 3 2 3 3 3 4 4 5 5 6 7 7 8 8 9 8 9 9 9 9 10 10 10 11 11 12 12 12 13 13 13 13 13 12 13 13 14 14 13 14 14 13 13 14 13 12 13 13 12 11 11 10 12 13 14 7 10 13 12 12 12 11 11 10 12 11
12 13 12 12 13 13 12 12 12 12 11 10 10 9 7 6 5 4 4 4 4 3 3 3 4 4 4 6 7 7 7 8 8 9 9 10 10 10 10 10 11 11 11 12 13 13 13 13 12 13 13 14 14 13 13 13 14 13 14 13 14 14 14 14 12 12 12 13 14 15 15 11 11 13 10 11 8 11 14 13 12 11 12 12 12
12 13 13 13 13 14 14 13 13 13 13 11 10 9 9 7 6 5 5 5 4 4 4 5 4 5 6 7 7 8 8 8 8 8 9 10 10 10 10 11 11 11 11 13 12 12 14 14 13 13 14 14 14 14 13 13 14 14 14 14 13 15 16 16 15 13 12 13 15 17 15 11 10 12 12 10 11 14 14 16 13 12 12 12 12
12 12 13 13 13 13 12 12 12 12 12 11 10 10 9 7 7 7 7 6 5 4 4 4 5 5 7 7 8 8 9 8 8 10 10 10 9 10 10 10 10 10 10 11 13 13 14 14 15 14 14 14 14 14 13 12 13 14 14 15 16 16 17 16 15 16 16 16 15 15 16 16 15 13 11 10 13 18 10 9 13 13 12 12 14
11 12 12 12 12 12 12 10 10 10 11 13 11 10 10 9 7 7 6 5 4 4 4 4 4 5 6 7 9 8 8 8 10 10 10 9 9 9 10 11 11 11 10 11 12 11 13 15 14 15 14 15 15 14 14 13 14 14 15 13 15 17 18 17 16 17 17 14 15 16 16 16 16 16 14 15 16 13 11 10 16 15 11 12 14
8 10 11 11 11 12 12 12 12 12 11 12 11 10 9 8 8 7 6 5 4 4 4 4 4 5 6 7 8 8 8 10 10 9 9 9 9 10 9 10 10 10 10 10 11 12 13 14 15 15 15 15 15 14 13 13 14 15 16 15 16 17 17 17 18 18 18 17 17 16 16 15 13 15 13 15 16 14 11 14 17 12 11 12 15
7 7 8 9 10 10 10 11 11 12 11 11 10 9 8 7 8 6 6 4 4 3 4 4 4 5 7 8 8 8 9 9 10 9 10 10 10 9 9 9 9 9 10 10 11 12 13 13 15 15 15 15 15 15 14 13 14 15 16 17 17 18 18 18 18 18 18 18 18 17 16 15 15 16 16 15 16 13 9 11 13 12 12 13 14
8 9 10 10 11 12 11 11 11 10 10 10 10 9 9 8 7 6 4 3 3 3 4 4 5 6 7 7 8 8 9 9 9 9 10 10 9 9 8 9 9 10 10 10 10 11 13 14 13 14 15 15 15 15 15 15 14 13 16 16 17 17 18 19 19 19 19 18 18 17 17 16 16 16 15 15 15 14 10 11 15 14 15 14 11
7 8 9 11 11 11 11 10 9 9 9 10 10 9 8 7 6 4 4 4 3 3 4 5 5 6 7 7 8 8 8 9 9 9 9 9 9 9 9 9 10 10 11 11 12 11 12 14 15 15 15 15 15 15 16 15 14 14 14 15 15 16 17 19 20 20 19 18 17 18 17 16 16 16 16 16 15 15 13 15 15 12 16 12 11
6 7 8 8 9 11 11 9 7 8 8 8 8 8 7 6 4 4 4 3 3 3 5 6 6 7 7 8 9 9 8 8 8 8 8 8 9 9 10 10 10 11 12 12 13 14 13 14 15 15 15 15 15 16 16 15 15 14 15 15 13 14 15 17 19 21 20 19 19 18 17 17 17 17 16 16 15 14 13 14 13 13 14 15 13
5 6 9 10 10 10 9 9 8 8 8 8 7 6 5 3 3 4 3 3 3 4 6 7 8 8 8 9 9 9 8 8 8 8 8 8 9 9 10 11 11 12 13 14 14 14 14 14 14 15 15 14 14 14 15 15 14 13 12 12 13 13 12 15 16 17 18 20 19 19 18 17 17 17 16 15 15 14 14 16 10 6 11 14 13
7 8 8 9 10 9 9 9 8 8 9 8 6 6 4 4 4 3 3 3 3 5 7 8 8 8 8 9 9 8 8 8 9 9 9 9 10 11 12 12 13 13 12 13 14 14 15 15 15 14 15 14 14 13 12 12 12 12 11 11 12 12 13 14 15 15 15 18 20 18 17 17 17 16 16 12 12 10 11 12 13 12 12 9 12
8 7 8 8 9 8 9 8 9 9 8 7 6 5 5 4 3 2 3 3 4 5 7 8 8 8 8 9 9 8 9 9 9 10 10 10 11 13 13 14 13 13 13 13 14 14 14 14 15 14 13 12 12 11 12 14 8 8 12 12 12 12 12 13 14 15 14 14 17 17 14 18 15 12 11 11 11 12 12 12 11 11 11 9 10
6 5 5 6 6 7 8 9 9 8 8 6 5 5 3 3 2 2 2 3 5 6 7 7 8 8 8 8 8 9 9 9 9 10 10 11 14 13 13 14 13 13 14 14 14 14 14 14 15 14 14 12 12 12 14 11 10 9 10 13 13 13 12 13 13 14 14 13 12 14 13 13 11 10 11 13 13 13 15 16 16 16 13 11 12
3 3 3 5 7 7 8 8 9 8 7 6 5 4 4 3 2 2 2 4 5 6 7 7 7 7 8 8 8 9 9 10 10 11 11 12 13 13 13 13 13 13 13 13 14 14 14 14 13 15 14 13 12 14 13 12 10 9 8 10 13 13 11 11 12 13 13 13 13 12 11 10 11 12 11 12 14 18 18 17 18 17 17 18 17
2 2 3 4 5 6 7 8 7 6 6 6 5 4 3 2 1 1 2 4 5 6 7 7 7 8 9 8 8 9 10 10 10 11 11 12 13 13 13 13 14 13 13 13 14 14 14 14 15 15 15 14 13 13 12 11 11 10 10 11 12 12 12 12 12 12 13 13 13 12 11 10 11 11 10 12 12 11 15 20 20 19 19 18 18
1 1 2 3 4 5 6 7 6 6 5 5 4 3 3 2 1 1 3 4 5 6 6 7 8 9 9 8 8 9 9 10 10 10 11 13 13 13 13 13 13 13 12 13 14 14 14 15 14 14 14 15 15 13 11 13 14 13 11 10 13 15 14 14 14 14 13 14 14 14 14 12 11 12 11 12 11 12 12 10 12 12 13 16 18
1 2 3 4 5 6 7 8 7 7 7 6 5 5 4 2 1 1 2 4 5 6 6 7 8 8 8 8 8 9 9 9 10 10 11 12 13 13 13 12 12 13 13 13 13 14 14 14 14 14 14 15 14 13 10 12 14 14 14 14 14 14 14 14 14 14 15 14 14 14 15 14 15 14 12 12 13 12 11 11 13 13 12 13 13
2 2 4 6 7 8 8 8 7 8 7 6 5 4 3 2 1 2 3 4 5 5 7 7 8 8 8 8 8 8 8 9 9 10 12 13 13 13 13 13 13 12 12 13 13 13 14 14 14 15 15 15 14 14 11 10 11 14 16 14 13 13 13 14 15 14 14 13 13 14 15 16 16 16 16 13 11 12 13 14 15 14 13 12 12
1 2 5 6 7 7 8 8 8 7 7 5 5 4 2 2 2 2 3 4 5 6 6 7 7 8 7 7 7 8 8 8 10 12 13 13 13 13 12 11 13 13 13 13 13 13 12 13 14 14 15 16 15 14 13 12 12 14 14 12 13 12 12 13 14 15 14 14 14 15 15 15 15 16 15 13 13 11 13 15 15 15 14 13 13
1 3 5 6 6 6 8 7 8 7 6 6 5 4 3 2 2 3 3 4 5 6 6 7 7 7 7 7 7 7 9 10 11 13 13 12 12 11 11 11 12 13 13 13 13 12 12 13 14 15 14 15 16 15 14 12 13 13 13 12 11 11 13 13 13 15 14 13 15 16 16 16 17 17 16 14 12 10 13 15 15 16 16 16 15
3 3 5 6 7 7 8 8 8 8 7 7 6 5 4 3 3 3 3 4 6 6 6 7 7 6 6 6 7 8 9 10 11 11 10 12 12 11 11 11 12 12 12 12 12 12 13 13 13 14 17 17 15 15 14 11 10 11 11 11 11 11 12 12 13 13 13 12 12 13 15 16 16 17 17 15 12 9 14 14 14 14 15 16 14
2 3 4 4 6 7 8 9 9 8 8 8 6 5 4 3 3 3 3 4 5 5 6 6 6 5 6 6 6 7 8 9 10 10 10 11 11 11 12 12 12 11 11 12 12 12 14 12 12 13 12 13 14 13 13 12 12 12 11 12 11 11 12 12 12 12 13 12 12 12 12 13 18 20 21 21 18 11 10 14 15 14 14 15 12
4 4 4 5 7 8 9 9 8 8 8 8 6 6 5 4 4 4 4 4 4 5 5 6 5 5 6 6 7 8 8 9 8 9 10 10 10 11 12 12 12 11 12 12 13 12 12 12 11 12 12 12 11 13 14 13 13 12 13 13 11 12 12 12 12 12 12 12 11 10 10 7 8 12 14 16 15 14 12 12 15 16 16 12 12
1 3 1 6 8 8 8 8 8 9 8 7 7 6 5 5 5 5 3 2 3 4 5 5 5 6 5 6 5 5 7 7 8 9 10 10 10 10 11 11 11 11 13 13 13 12 11 12 11 11 11 11 12 16 13 13 14 14 16 18 13 12 12 12 12 12 12 11 11 12 11 13 22 17 14 13 14 12 11 8 12 17 18 18 15
7 8 10 10 9 10 10 9 8 9 8 7 7 7 6 5 5 4 3 3 3 4 5 5 4 5 4 5 8 8 5 5 7 9 9 10 10 10 11 11 11 12 12 13 12 12 12 12 11 10 10 10 11 11 14 13 15 16 18 18 18 16 16 13 12 12 12 11 10 11 11 16 18 18 18 18 17 17 13 10 13 14 16 17 14
9 10 9 11 11 10 9 9 8 8 8 8 8 7 6 6 5 4 3 3 4 4 4 4 4 5 5 5 6 8 7 8 8 7 7 9 9 10 10 10 11 11 11 12 11 11 11 11 12 11 10 10 10 10 12 14 16 19 18 18 17 17 16 12 12 11 9 9 9 8 9 12 11 12 14 14 14 13 9 14 13 15 15 13 9
9 9 8 10 11 11 10 10 9 10 8 8 7 7 7 7 5 4 5 5 4 4 4 4 5 5 5 5 5 6 7 7 9 8 6 6 8 9 9 10 11 11 11 11 11 10 10 11 11 11 11 11 11 11 11 13 18 20 18 16 16 15 14 11 5 7 7 3 6 7 8 8 6 8 10 9 8 7 11 11 11 11 10 7 7
6 6 8 9 9 10 11 11 10 10 9 8 7 7 7 6 5 5 5 4 4 4 4 4 4 5 5 5 6 6 7 7 7 6 7 6 5 7 8 9 10 10 10 10 10 10 10 11 11 11 12 12 12 11 12 12 13 16 15 14 15 12 13 11 5 6 4 5 7 5 7 10 9 11 8 8 7 8 9 10 10 11 7 6 6
5 6 8 9 11 10 11 11 11 10 9 8 8 7 6 6 6 6 5 4 4 4 4 4 4 5 5 5 7 6 6 6 6 4 5 6 5 6 7 8 9 10 11 10 10 10 10 11 11 11 11 11 11 11 12 12 13 12 11 11 10 9 10 9 5 5 3 3 5 7 7 8 10 9 10 9 10 10 10 10 9 8 7 6 7
5 6 8 9 11 11 11 11 10 10 9 9 8 8 7 7 7 6 5 5 4 4 5 4 4 5 5 5 5 2 5 5 5 5 5 5 6 6 6 7 7 9 10 10 10 10 11 11 11 11 11 11 11 12 13 15 14 14 12 10 9 9 9 8 8 6 6 6 7 7 9 10 10 11 11 10 11 10 10 10 9 9 8 7 8
5 6 8 9 10 11 11 11 10 9 9 9 9 8 8 8 7 6 6 5 5 4 4 4 4 4 5 4 5 4 4 5 5 5 4 2 4 5 6 6 6 6 7 8 9 9 10 10 10 10 11 12 12 13 14 16 15 18 15 12 10 9 8 9 12 13 6 9 9 11 12 12 12 12 13 12 11 11 10 10 13 12 9 9 9
5 6 8 9 9 10 10 11 9 9 9 9 9 8 8 8 8 7 6 6 5 4 4 4 3 4 4 4 5 4 4 4 4 5 6 2 8 7 4 4 4 6 6 7 8 7 8 9 8 7 8 9 10 11 18 20 18 18 20 19 17 16 15 11 11 14 12 12 12 12 12 12 12 12 13 14 13 12 12 11 10 12 12 11 11
5 6 7 9 9 10 10 10 9 9 9 9 8 8 8 8 8 7 7 6 5 5 4 4 3 3 4 5 5 4 4 5 4 4 4 6 1 7 6 11 7 3 4 7 9 9 10 12 10 8 7 9 14 17 19 20 20 18 19 22 23 21 19 15 14 8 13 13 12 14 14 14 12 12 12 13 12 11 12 12 12 11 11 13 12
Wind_Direction
121 113 105 100 97 93 90 89 89 90 91 89 83 77 70 70 69 61 54 45 39 41 36 32 39 59 55 37 22 357 342 333 322 319 316 316 311 309 300 289 282 268 239 248 233 247 253 254 250 243 234 247 262 259 251 249 240 228 223 218 222 224 226 220 227 225 223 224 223 228 233 231 234 228 224 225 229 231 230 228 231 233 229 220 220
128 119 115 114 109 104 102 104 103 95 86 81 78 75 73 71 71 71 62 56 49 39 37 40 34 30 16 53 346 332 358 345 327 333 340 322 330 318 305 300 288 271 264 241 231 226 240 251 256 254 239 239 249 255 254 245 249 242 229 224 218 221 226 225 219 217 219 222 217 218 228 232 228 228 230 229 231 228 224 224 226 226 228 225 219
137 132 133 128 123 116 106 98 92 88 90 87 90 91 90 86 84 80 74 72 64 50 44 47 9 341 327 32 312 282 118 349 306 328 326 326 316 314 307 311 301 290 278 269 266 242 240 240 235 250 249 240 242 249 253 242 231 232 229 229 224 225 227 224 220 211 225 209 220 239 235 232 215 224 230 235 230 229 223 222 221 223 227 227 219
146 144 140 133 121 113 110 104 99 103 105 105 101 99 95 94 94 89 86 83 74 59 58 55 21 316 315 320 331 310 343 289 271 251 293 307 308 305 299 307 307 298 288 279 263 264 253 240 246 237 247 247 245 255 259 262 254 235 232 230 238 236 224 218 214 211 222 208 211 213 221 223 238 219 221 222 228 226 224 225 220 225 226 222 227
150 146 142 138 136 130 126 123 128 123 116 115 113 106 101 101 98 92 88 81 71 57 50 35 28 21 1 312 301 318 218 326 317 323 329 313 301 298 303 304 296 290 294 287 273 266 260 247 237 226 237 245 244 247 255 263 267 266 236 231 239 236 231 236 223 217 214 221 224 207 211 219 229 230 209 221 207 219 221 225 224 228 225 222 223
155 151 149 147 141 137 136 141 135 126 124 118 113 112 110 106 105 102 93 84 77 67 54 48 40 27 13 10 3 356 353 359 353 341 333 330 323 312 296 297 295 290 283 287 290 283 268 257 254 245 235 234 235 241 250 240 253 252 247 221 235 235 248 237 238 217 218 213 225 235 238 228 216 218 222 214 181 219 222 222 224 221 228 225 225
161 156 153 151 149 152 151 149 138 132 125 125 121 117 115 109 105 101 94 91 84 74 62 59 56 49 40 29 10 353 341 339 338 325 316 315 311 308 305 297 290 289 287 286 283 283 282 273 260 250 241 230 238 243 244 246 240 247 252 239 227 238 225 234 247 222 214 221 224 229 238 244 249 232 216 222 213 201 222 220 219 219 216 222 223
165 163 161 159 160 161 154 146 143 136 133 129 124 122 111 103 102 96 91 86 80 75 72 61 57 48 46 32 4 351 341 321 323 323 314 306 305 305 305 299 297 292 288 284 284 284 280 281 277 264 252 233 223 234 246 251 253 256 258 261 272 256 240 230 230 251 251 232 224 234 232 236 241 241 247 253 248 223 197 214 226 220 220 219 226
170 166 168 167 169 162 155 147 141 137 129 126 126 117 110 106 100 95 88 87 84 74 67 63 56 48 30 19 5 346 324 311 312 313 317 314 305 304 299 300 295 294 293 290 285 284 289 287 285 280 268 254 232 229 238 242 246 250 251 250 240 247 255 241 232 230 227 255 236 223 233 230 230 234 241 239 240 240 238 229 219 203 214 215 218
175 172 170 171 168 166 158 148 137 119 119 122 122 121 117 114 106 98 91 81 77 73 68 63 56 38 31 10 348 339 336 320 305 308 306 311 310 311 306 302 303 302 300 297 296 293 289 289 284 281 280 274 261 251 239 234 237 246 250 244 247 247 245 277 276 251 232 243 259 260 218 229 232 232 230 232 236 239 242 234 226 226 217 210 212
178 173 172 167 165 163 164 146 124 122 128 135 130 127 125 125 121 106 95 91 78 59 46 46 42 25 15 355 337 327 325 314 313 310 306 304 307 312 311 312 307 303 303 301 299 298 298 291 284 282 283 282 273 263 253 243 233 234 242 249 251 252 250 238 240 248 243 237 236 246 255 237 225 227 227 225 229 227 226 236 244 236 236 226 211
181 176 172 165 164 170 162 135 134 138 146 148 145 142 145 139 138 124 117 101 89 66 43 29 19 19 358 341 332 327 318 312 313 307 307 306 299 299 306 307 308 305 300 298 300 307 306 297 290 282 277 278 282 279 274 268 254 242 238 234 241 248 247 242 246 245 241 238 230 230 238 252 248 235 231 229 226 230 228 231 230 237 241 243 233
184 183 175 171 174 170 156 142 146 159 165 163 158 159 157 151 152 145 126 127 102 84 46 16 6 1 352 335 332 323 316 311 305 305 306 302 305 301 301 298 299 301 304 304 300 303 304 302 299 296 290 285 288 290 283 276 274 260 240 236 231 241 246 244 243 240 236 232 230 229 228 243 248 243 240 236 231 232 232 236 236 236 238 242 239
186 185 181 179 179 169 156 156 163 169 173 172 170 172 168 161 167 164 138 145 138 139 26 360 348 345 337 330 326 322 319 311 308 306 310 306 306 303 299 297 292 289 293 294 302 303 300 299 294 289 285 280 279 280 281 277 270 264 256 251 243 237 240 245 244 246 243 240 232 233 220 228 250 257 241 232 230 227 229 232 236 237 238 243 240
188 187 187 182 176 166 160 165 170 174 175 179 180 187 175 176 177 180 169 159 169 183 228 330 337 331 326 328 323 321 317 315 309 308 304 304 302 300 296 293 291 290 288 291 292 296 298 298 296 289 287 284 280 275 275 275 271 266 258 253 247 241 243 241 250 254 244 241 243 231 229 227 240 248 245 236 227 229 230 229 231 234 236 239 242
191 189 187 180 173 167 166 169 175 175 179 184 193 190 187 192 186 193 196 171 199 221 309 313 320 322 316 314 315 314 312 310 305 307 306 303 303 299 294 290 290 292 290 292 294 296 299 300 298 293 289 287 286 278 273 270 271 270 264 255 249 244 245 244 238 240 243 243 243 236 236 238 233 243 246 247 240 232 228 233 234 235 239 241 231
193 189 186 178 174 177 178 177 180 182 185 191 198 193 191 197 204 210 211 210 233 299 315 319 315 309 315 313 309 312 308 307 308 305 302 298 300 303 301 301 298 296 295 293 297 296 296 297 298 296 292 288 283 279 274 267 267 268 266 262 255 251 247 242 238 241 244 241 241 239 235 241 247 244 242 263 257 234 235 231 233 235 233 245 251
197 193 186 181 182 182 184 186 189 190 193 195 197 194 191 203 219 232 231 276 296 303 306 313 315 308 312 310 308 305 304 305 304 303 302 303 303 301 303 304 304 304 300 295 294 295 293 292 294 296 293 286 280 282 279 274 269 264 262 262 259 254 254 251 245 242 239 237 232 231 233 239 240 252 236 233 252 254 235 234 233 232 230 238 247
200 198 191 187 188 185 187 190 195 193 198 201 195 196 194 198 208 228 257 270 289 292 297 302 299 306 304 307 305 303 304 303 302 302 301 300 299 299 299 299 299 299 297 297 297 296 293 293 293 293 293 291 284 273 275 274 268 265 262 260 259 255 253 253 245 240 241 239 236 239 235 227 234 244 237 230 240 259 255 238 234 231 231 233 243
204 201 198 194 188 187 185 190 196 194 196 200 196 195 197 196 208 231 243 250 254 271 285 289 302 304 302 301 303 306 307 305 301 303 303 300 298 299 298 296 298 299 296 295 292 289 291 291 290 289 289 290 286 281 273 271 269 263 261 258 257 256 253 251 249 241 239 239 239 239 234 223 229 238 238 232 238 239 238 237 229 233 232 230 233
212 208 204 195 186 186 185 187 200 196 196 196 194 194 196 198 210 228 239 243 248 256 261 275 290 291 297 301 307 308 306 303 305 305 301 298 296 295 294 293 293 292 295 292 293 290 287 287 289 287 286 286 285 283 278 271 267 264 260 260 258 257 254 251 248 247 243 241 239 236 236 235 227 225 233 236 236 232 225 248 249 237 229 227 230
216 216 208 195 187 182 186 185 193 197 196 193 192 196 194 201 212 223 228 238 250 256 265 280 276 283 290 305 308 309 308 308 309 306 299 297 294 294 293 296 297 295 292 291 288 291 291 289 285 282 282 283 282 280 279 273 268 267 264 260 258 255 256 253 250 250 247 243 240 239 234 230 224 232 228 232 233 231 225 219 241 240 223 228 230
218 215 207 198 188 182 185 187 190 194 196 194 193 195 201 201 213 223 232 248 254 268 274 278 284 287 298 303 307 308 311 307 311 305 298 297 297 294 293 293 291 292 292 292 295 294 291 289 286 283 279 279 280 280 280 278 273 269 266 261 258 257 254 254 250 249 250 248 246 244 242 236 233 231 221 230 236 236 234 238 234 225 228 228 234
218 204 199 193 182 175 185 190 195 197 196 195 196 194 196 203 218 225 232 243 263 266 276 285 292 296 302 306 307 307 308 313 308 307 304 303 301 297 292 289 290 292 291 293 292 293 293 292 288 284 279 276 278 278 275 276 279 277 268 263 261 257 256 254 252 250 248 247 246 247 244 240 234 232 230 231 234 226 222 233 238 233 228 232 234
219 206 197 193 191 184 191 196 200 196 190 187 192 197 198 207 216 232 252 264 265 273 283 294 298 302 307 310 309 309 312 306 302 302 302 301 295 292 290 290 291 289 293 297 295 293 292 288 286 284 281 278 274 274 278 277 272 274 278 273 265 262 261 259 254 249 249 249 248 246 246 243 239 237 235 232 231 228 210 222 230 223 224 227 238
232 219 206 203 200 197 197 200 196 188 187 182 189 195 204 213 211 214 249 261 283 290 298 301 307 313 314 315 315 314 313 309 305 305 303 298 292 288 289 288 289 293 296 295 295 295 295 293 287 284 283 283 280 277 275 275 276 276 273 278 277 269 267 265 260 253 248 247 246 246 245 245 243 241 239 239 237 227 225 230 233 232 236 223 224
237 223 214 209 204 203 202 185 185 174 179 183 190 198 207 214 219 244 262 286 293 295 303 311 319 321 321 322 323 321 316 308 304 302 297 292 291 291 289 290 293 294 294 295 294 298 298 295 292 288 283 279 279 277 276 278 277 275 275 276 288 297 293 277 267 261 251 246 245 245 245 244 245 243 242 241 237 229 227 237 240 234 231 224 230
227 215 211 212 210 199 187 175 170 174 177 188 190 203 213 211 241 255 273 289 295 301 312 321 328 326 324 327 324 320 314 309 305 300 298 296 295 297 299 300 300 298 298 297 297 297 297 296 294 291 287 284 282 279 277 275 276 278 277 283 293 294 299 296 289 281 268 254 245 244 242 241 241 241 241 240 237 235 234 235 233 244 257 244 225
236 222 215 214 207 192 178 166 168 173 175 183 194 192 193 216 236 259 289 295 304 311 320 327 329 325 328 324 321 318 311 306 308 308 304 304 307 307 306 302 302 301 298 296 296 297 297 297 294 293 292 289 284 280 279 276 280 286 293 301 299 299 299 295 292 288 280 268 253 244 242 241 241 245 250 254 250 245 239 238 239 231 233 244 260
252 240 221 212 205 185 170 164 168 175 175 185 190 203 200 207 224 255 274 299 309 319 323 327 323 324 323 323 320 315 314 316 311 314 316 314 310 308 307 305 304 301 299 298 296 293 293 294 295 293 292 290 285 283 280 296 328 318 306 303 301 297 295 293 291 288 286 281 261 248 248 247 246 246 251 250 247 242 240 251 249 239 236 241 242
266 251 225 202 186 170 165 167 167 171 176 188 187 192 197 215 238 252 291 312 318 325 323 321 319 322 322 319 319 320 318 316 322 317 316 315 316 318 312 306 303 301 299 297 293 292 293 294 293 293 292 288 285 281 289 297 295 294 291 292 294 294 292 287 282 279 277 278 276 260 253 253 241 230 237 240 245 239 239 244 249 254 252 237 243
286 257 227 188 180 171 168 164 162 167 172 179 180 193 193 220 202 280 318 321 325 320 317 316 319 321 320 322 322 320 319 322 323 324 325 325 322 318 315 312 310 306 302 299 292 290 291 294 295 292 289 287 287 288 293 294 290 279 269 285 292 288 283 279 277 278 276 271 265 261 261 257 255 253 257 235 223 230 235 239 241 243 243 246 243
299 239 207 182 175 163 157 154 160 166 174 176 177 191 192 197 181 299 320 317 317 315 313 317 319 321 324 323 320 320 321 324 328 327 331 327 325 320 316 314 309 306 302 297 294 293 292 294 295 293 291 290 286 289 303 325 328 320 306 295 293 283 279 278 278 277 278 277 274 266 265 263 259 260 256 253 259 243 222 230 237 239 244 243 244
359 213 195 167 158 153 152 154 159 162 172 156 169 169 146 148 190 288 313 315 313 311 315 315 321 324 325 324 321 323 322 326 328 331 331 329 325 321 318 314 310 308 305 301 298 296 295 295 296 295 293 291 290 295 320 326 324 324 324 320 301 291 281 275 271 269 265 265 262 264 266 269 267 263 260 260 261 259 261 238 226 233 238 238 235
127 153 158 150 154 149 147 154 162 155 147 152 162 162 163 171 190 288 303 306 308 314 312 317 323 323 321 323 324 324 326 327 329 331 331 329 325 322 319 317 313 310 307 305 303 302 300 298 298 296 294 293 291 304 323 317 314 315 318 313 298 287 281 275 269 263 261 260 261 260 262 265 268 265 264 265 263 265 263 262 259 252 244 245 242
36 144 156 158 159 159 159 163 155 158 167 176 159 157 169 176 213 296 303 297 307 310 306 320 318 320 322 326 323 323 323 327 331 331 331 333 328 324 321 320 316 312 310 308 306 304 303 302 301 300 297 296 296 308 314 310 311 313 310 302 296 291 282 278 273 270 264 259 256 256 256 257 260 264 261 249 244 257 264 266 263 260 256 249 246
63 152 162 162 160 164 160 158 164 173 168 165 148 160 170 190 231 279 290 303 305 299 311 316 313 319 325 323 322 320 326 332 332 329 336 337 330 327 324 323 318 317 315 312 310 307 306 305 303 302 301 298 300 308 317 314 308 303 300 301 300 295 288 279 272 267 264 259 254 251 253 255 255 257 257 245 229 222 253 259 262 263 260 259 257
291 163 164 159 161 156 155 169 166 168 161 148 153 159 175 206 238 266 279 294 295 301 316 315 314 321 320 322 320 326 333 334 327 335 339 333 331 327 325 325 321 319 316 315 313 311 309 307 306 303 302 303 302 304 306 309 306 306 311 307 301 297 289 282 276 272 268 265 258 252 255 255 257 257 258 251 236 209 247 256 262 265 262 257 255
308 229 199 173 171 172 170 171 168 168 160 153 159 165 195 215 228 250 272 285 287 307 307 313 317 319 316 320 328 329 329 330 330 337 333 333 331 328 326 325 322 317 315 315 316 314 313 310 307 305 305 305 304 308 313 318 330 325 320 313 306 299 297 293 289 281 273 268 266 259 248 249 255 261 271 270 257 227 252 256 263 265 265 263 262
272 273 260 207 176 172 181 183 182 172 159 159 165 184 199 231 240 248 262 269 293 305 309 304 306 313 316 326 326 322 327 324 326 330 332 332 329 328 331 327 325 322 319 320 319 317 315 313 312 310 311 312 312 312 312 320 323 320 318 317 307 297 287 284 283 286 285 280 274 272 261 233 232 240 249 256 261 249 258 268 269 267 269 270 272
264 221 208 222 205 205 201 192 185 169 162 167 177 186 200 210 223 243 245 274 303 301 298 304 308 311 319 326 318 331 334 323 325 328 328 328 330 330 330 331 329 327 324 321 319 317 316 317 316 318 316 315 311 312 317 328 323 320 319 317 305 295 286 282 279 275 274 279 279 272 274 270 26 353 343 332 328 319 310 287 273 266 267 293 322
144 82 243 256 236 217 210 196 183 169 169 171 181 190 208 205 216 231 248 278 264 280 292 298 304 318 329 319 314 327 323 321 320 325 327 328 329 330 331 332 332 329 326 323 323 321 320 319 318 319 317 314 316 320 321 324 324 325 318 307 301 292 289 288 284 276 271 265 270 281 282 336 354 345 338 323 314 310 306 291 278 281 294 298 287
197 202 200 215 227 217 208 189 171 172 174 178 183 195 204 204 224 231 221 233 241 269 285 300 315 316 322 310 306 322 335 312 320 329 328 325 329 332 334 335 335 333 330 328 326 326 325 324 324 323 322 320 324 324 328 326 326 320 312 304 295 289 279 269 261 261 264 271 275 276 284 353 345 338 332 330 320 312 300 276 270 274 274 277 280
243 247 217 194 212 210 200 184 176 175 176 178 183 196 203 209 221 202 206 223 233 259 283 293 300 306 316 306 303 323 348 334 336 335 328 329 330 335 336 340 339 337 336 332 331 329 329 328 328 326 327 331 332 331 327 330 328 319 315 307 299 293 285 271 250 249 254 267 289 330 350 348 355 348 329 318 312 302 311 314 306 288 279 274 267
254 251 219 199 205 199 192 181 177 176 178 180 184 199 196 209 208 194 212 223 231 256 270 283 297 315 312 312 315 318 321 330 333 340 327 338 337 340 338 342 344 342 339 334 331 332 330 328 327 327 329 332 335 335 332 336 332 326 321 314 312 312 318 326 275 243 257 333 7 342 349 337 325 352 325 323 312 357 349 333 326 317 286 265 247
256 235 207 197 209 206 194 182 180 177 180 180 185 194 201 206 198 202 221 224 227 243 267 282 302 304 314 316 319 319 332 322 327 326 324 342 352 343 343 344 346 343 341 338 335 334 332 332 331 333 336 337 339 340 343 340 337 334 332 331 329 329 345 338 354 42 89 76 19 354 12 2 12 11 356 6 348 350 334 343 340 335 321 299 273
233 219 197 202 206 204 198 188 184 180 181 181 183 194 199 200 196 201 210 217 228 237 265 275 279 300 306 312 309 344 334 311 337 326 323 332 359 351 351 351 351 346 343 342 340 338 338 338 337 338 339 341 343 347 349 346 348 345 342 341 348 349 354 345 8 33 22 44 38 33 19 16 15 10 12 11 8 2 3 4 360 353 348 347 338
225 225 204 206 207 208 199 195 190 181 183 181 185 194 194 197 197 201 207 212 226 230 254 284 295 302 306 324 313 243 266 322 333 333 326 338 357 357 0 5 2 355 345 343 344 346 347 342 341 343 344 346 347 353 359 356 357 357 353 352 359 1 12 16 1 1 20 16 21 27 27 24 18 18 16 14 14 11 14 16 10 0 359 1 2
213 205 206 219 212 212 206 200 196 183 182 182 187 191 191 197 202 198 203 213 222 215 230 266 287 298 300 313 295 311 323 326 331 327 336 333 356 1 1 14 38 13 3 353 344 351 349 345 344 350 350 349 354 358 358 352 360 3 4 9 14 11 18 38 18 354 27 39 38 35 32 28 24 21 20 17 15 14 13 17 20 16 11 11 20
204 209 211 217 227 221 212 205 199 184 182 185 186 191 189 195 200 200 199 213 218 220 233 252 271 294 308 319 309 315 329 329 333 335 331 49 89 19 81 26 42 68 1 8 5 5 358 353 351 358 5 1 355 349 345 351 359 7 9 10 11 18 24 30 22 32 44 52 47 47 41 35 29 27 23 22 20 20 19 15 16 12 19 19 21
197 208 220 218 215 218 216 209 202 186 188 186 188 191 190 195 195 195 201 212 211 221 233 245 242 271 50 321 301 316 340 330 337 336 335 334 156 134 101 116 102 357 7 17 10 8 10 14 12 357 359 7 1 0 359 357 359 4 14 17 16 13 3 2 351 35 58 56 54 54 48 42 33 30 25 17 12 14 15 18 18 14 14 19 25